This is the latest recevied weather packets stored in our database for station/object KQ4PPF. If no packets are shown the sender has not sent any weather packets the latest 10 day(s).
| Time | Temp. | Humidity | Pressure | Rain* | Wind** | Luminosity | Snow |
|---|---|---|---|---|---|---|---|
| 1777747216 | 17.78° C | 37% | 1014.7 hPa | 0 mm | - | 207 W/m² | - |
| 1777746912 | 18.33° C | 40% | 1014.7 hPa | 0 mm | - | 206 W/m² | - |
| 1777746609 | 18.33° C | 38% | 1014.3 hPa | 0 mm | - | 231 W/m² | - |
| 1777746303 | 18.33° C | 44% | 1014.3 hPa | 0 mm | - | 247 W/m² | - |
| 1777745999 | 17.78° C | 40% | 1014.3 hPa | 0 mm | - | 285 W/m² | - |
| 1777745693 | 17.78° C | 40% | 1014.4 hPa | 0 mm | - | 287 W/m² | - |
| 1777745391 | 17.78° C | 39% | 1014.4 hPa | 0 mm | - | 296 W/m² | - |
| 1777745087 | 17.78° C | 37% | 1014.5 hPa | 0 mm | - | 303 W/m² | - |
| 1777744783 | 17.78° C | 38% | 1014.8 hPa | 0 mm | - | 317 W/m² | - |
| 1777744477 | 17.78° C | 37% | 1014.4 hPa | 0 mm | - | 306 W/m² | - |
| 1777744174 | 18.33° C | 39% | 1014.8 hPa | 0 mm | - | 271 W/m² | - |
| 1777743871 | 18.33° C | 36% | 1014.9 hPa | 0 mm | - | 412 W/m² | - |
| 1777743568 | 17.78° C | 39% | 1014.6 hPa | 0 mm | - | 430 W/m² | - |
| 1777743265 | 17.22° C | 38% | 1014.6 hPa | 0 mm | - | 536 W/m² | - |
| 1777742964 | 17.22° C | 37% | 1014.9 hPa | 0 mm | - | 445 W/m² | - |
| 1777742660 | 17.22° C | 35% | 1014.8 hPa | 0 mm | - | 399 W/m² | - |
| 1777742356 | 17.22° C | 40% | 1015.2 hPa | 0 mm | - | 334 W/m² | - |
| 1777742052 | 17.78° C | 40% | 1015.2 hPa | 0 mm | - | 324 W/m² | - |
| 1777741750 | 17.78° C | 36% | 1015 hPa | 0 mm | - | 502 W/m² | - |
| 1777741446 | 17.22° C | 39% | 1015.3 hPa | 0 mm | - | 622 W/m² | - |
| 1777741142 | 16.67° C | 39% | 1015.1 hPa | 0 mm | - | 905 W/m² | - |
| 1777740839 | 16.67° C | 38% | 1015.2 hPa | 0 mm | - | 564 W/m² | - |
| 1777740536 | 16.67° C | 40% | 1015.3 hPa | 0 mm | - | 367 W/m² | - |
| 1777740233 | 16.67° C | 39% | 1015.2 hPa | 0 mm | - | 342 W/m² | - |
| 1777739929 | 16.67° C | 40% | 1015.4 hPa | 0 mm | - | 389 W/m² | - |
* Rain latest hour (hover to see other rain measurements)
** Current wind speed in m/s (hover to see current wind gust speed)